Tracking 25656 objects as of 21-May-2022
HD Live streaming from Space Station
objects crossing your sky now

COSMOS 2251 DEB

Track COSMOS 2251 DEB now!
10-day predictions


NORAD ID: 34478
Int'l Code: 1993-036TX
Perigee: 656.8 km
Apogee: 792.9 km
Inclination: 74.1 °
Period: 99.1 minutes
Semi major axis: 7095 km
RCS: 0.0197 m2 (small)
Launch date: June 16, 1993
Source: Commonwealth of Independent States (former USSR) (CIS)
Launch site: PLESETSK MISSILE AND SPACE COMPLEX (PKMTR)

Note: This is SATELLITE DEBRIS
aabbcc
Your satellite tracking list
Your tracking list is empty




NASA's NSSDC Master Catalog

Two Line Element Set (TLE):
1 34478U 93036TX  22141.06518560  .00005811  00000-0  13478-2 0  9998
2 34478  74.0647   9.9154 0095893 202.1001 282.9593 14.52432233698419
Source of the keplerian elements: AFSPC